STARLINK-1850 (47138 NORAD) Tracking and Keplerian Element Data
This shows tracking and keplerian element data for the satellite.
Feedback or suggestion? Click here.
Element | Value |
Catalog | 47138 |
Name | STARLINK-1850 |
Epoch Orbit | 180 |
Epoch Day | 60.91667824 |
Epoch Year | 2021 |
RAAN | 248.7403 |
Inclination | 53.0581 |
Eccentricity | 0.000145 |
Argument of Perigee | 101.1324 |
Mean Anonmoly | 177.3547 |
Mean Motion | 15.06368283 |
Decay Rate | 0.00033429 |
L1 | 1 47138U 20088S 21060.91667824 .00033429 00000-0 22544-2 0 9993 |
L2 | 2 47138 53.0581 248.7403 0001450 101.1324 177.3547 15.06368283 1802 |
Live tracking and technical data element details for STARLINK-1850 (NORAD 47138). STARLINK-1850 can be tracked NOW for your location showing map with azimuth and elevation plus other details from your city location.
Track the satellite on the map from your city or location and see movement details for azimuth, elevation, latitude, longitude, range, height, and movement on the map or in text.
IsCatalogInMostPopularTable: catalog: 47138, numindb: 30
Update: records affected: 1
GetName: 47138 STARLINK-1850
Hit Count: updated at: Tue, 02 Mar 2021 14:53:27 GMT